Delta Virtual Airport Information Service

Washington Dulles International Airport

ICAO: KIAD Country: United States
Latitude: 38.9474 Longitude: -77.4599
Latest Arrival : UAL123 (EGLL-KIAD) Latest Departure : DAC2222 (KIAD-FACT)


WX CaptureLIVE
Data provided by noaa.gov | Fetched at 02:23:14

METAR : KIAD 300652Z 17007KT 10SM BKN130 OVC210 08/04 A3010 RMK AO2 SLP191 T00830039

TAF : KIAD 300652Z 17007KT 10SM BKN130 OVC210 08/04 A3010 RMK AO2 SLP191 T00830039


Runway Data for KIAD
Data provided by openaviationdata.com

Runway ID Mag Var Hdg Length Elevation Surface ILS Freq ILS Id ILS Slope
01L -10 10° 11512 ft 312 ft Concrete 111.3 IOSZ 3
01R -10 10° 11511 ft 312 ft Concrete 110.1 IIAD 3
12 -10 120° 10490 ft 312 ft Concrete 109.3 IAJU 3
19L -10 190° 11511 ft 312 ft Concrete 110.1 ISGC 3
19R -10 190° 11512 ft 312 ft Concrete 111.3 IDLX 3
30 -10 300° 10490 ft 312 ft Concrete -- -- --

Washington Dulles International Airport, United States
Use only for reference purposes



Not for navigational purposes.